sat.trackr.live / text

‹ back to catalog

GPS BIIRM-5 (PRN 29)

NORAD 32384 · 2007-062A

PAYLOAD ACTIVE UNKNOWN

§ Identity

Operator
Country
US
Launch date
2007-12-20
Launch site
AFETR
Launch vehicle
Mass (kg)
RCS (m²)
2.00

Purposes: earth_obs, nav

External: N2YO · Heavens-Above · Gunter

§ Orbital elements

Epoch: 2026-05-24T20:30:32.388192Z

Period
717.99 min
Inclination
55.0511°
Eccentricity
0.0035291
Mean motion
2.00558668 rev/d
Perigee alt
20,088.9 km
Apogee alt
20,276.4 km
Semi-major
26,560.8 km
B*
0.0000e+0
RAAN
275.0902°
Arg perigee
164.1144°
Mean anomaly
9.0351°
Rev number
13,504

§ Raw data

GPS BIIRM-5 (PRN 29)1 32384U 07062A   26144.85454153 -.00000076  00000+0  00000+0 0  99992 32384  55.0511 275.0902 0035291 164.1144   9.0351  2.00558668135046

JSON: /api/v1/satellites/32384 · /tle

For live sub-satellite position, see the globe view (requires WebGL).

§ Visibility from observer

Set your observer location to see the next 7 days of passes ≥ 10°. The values pass through the URL so the page stays shareable.

No JS? Fill the form by hand. The geolocation button needs JavaScript.